Regional Weather Roundup
Issued by NWS

Home | Current Version | Previous Version | Graphics & Text | Print | Product List | Glossary On
Versions: 1 2 3 4 5 6 7 8 9 10 11 12 13 14 15 16 17 18 19 20 21 22 23 24 25 26 27 28 29 30 31 32 33 34 35 36 37 38 39 40 41 42 43 44 45 46 47 48 49 50
000
ASUS45 KCYS 230710
RWRWY

WYOMING REGIONAL WEATHER ROUNDUP
NATIONAL WEATHER SERVICE CHEYENNE WY
100 AM MDT SAT MAY 23 2015

NOTE:  "FAIR" INDICATES FEW OR NO CLOUDS BELOW 12,000 FEET
WITH NO SIGNIFICANT WEATHER AND/OR OBSTRUCTIONS TO VISIBILITY.

WYZ001-230800-
YELLOWSTONE NATIONAL PARK

CITY           SKY/WX    TMP DP  RH WIND       PRES   REMARKS
LK YELLOWSTONE   N/A     37  36  96 CALM      30.04R
W YELLOWSTONE  NOT AVBL

$$
WYZ002>013-054>058-071-098>099-230800-
NORTHERN WYOMING

CITY           SKY/WX    TMP DP  RH WIND       PRES   REMARKS
JACKSON        CLOUDY    45  43  93 CALM      29.98R
CODY           CLOUDY    48  48 100 N3        29.96S
GREYBULL       CLOUDY    55  52  89 NW3       29.92S
WORLAND        MOCLDY    52  49  89 NE5       29.93S
SHERIDAN       MOCLDY    49  43  80 SE17G23   29.94F
BUFFALO        FAIR      45  44  97 S15       29.99F
GILLETTE       CLOUDY    47  42  83 SE17      30.01S
HULETT         FAIR      45  39  81 CALM      30.04S
NEWCASTLE      CLOUDY    45  43  93 SE12      30.04F

$$
WYZ014>020-022>026-101>103-230800-
CENTRAL WYOMING

CITY           SKY/WX    TMP DP  RH WIND       PRES   REMARKS
BIG PINEY      LGT RAIN  41  39  93 S5        30.00S
PINEDALE       RAIN      41  41 100 S3        30.01R
DUBOIS         RAIN      39  36  87 SE7       29.99S WCI  34
LANDER         CLOUDY    47  45  93 E3        29.95R
RIVERTON       CLOUDY    48  46  93 NE5       29.96R
CASPER         MOCLDY    44  42  93 E5        29.98R
DOUGLAS        CLOUDY    45  44  97 SE17      30.01S FOG

$$
WYZ021-027>030-104>119-230800-
SOUTHERN WYOMING

CITY           SKY/WX    TMP DP  RH WIND       PRES   REMARKS
EVANSTON       CLOUDY    40  37  89 E3        30.00S
KEMMERER       CLOUDY    41  39  93 CALM      30.01R
FORT BRIDGER   CLOUDY    41  41 100 S6        30.04R
ROCK SPRINGS   FAIR      40  37  89 SW6       30.01S
DIXON          FAIR      43  39  86 NE3       30.05F
RAWLINS        FAIR      39  36  89 VRB5      30.02R
SARATOGA       PTSUNNY   37  36  93 MISG      30.05R
LARAMIE        FAIR      40  38  93 S18       30.04S WCI  31
CHEYENNE       CLOUDY    43  41  93 S8        30.05S
TORRINGTON     CLOUDY    45  43  93 SE10      30.05R
PINE BLUFFS    CLOUDY    43  43 100 CALM      30.07S

$$


USA.gov is the U.S. government's official web portal to all federal, state and local government web resources and services.